Regional Weather Roundup
Issued by NWS

Home | Current Version | Previous Version | Graphics & Text | Print | Product List | Glossary On
Versions: 1 2 3 4 5 6 7 8 9 10 11 12 13 14 15 16 17 18 19 20 21 22 23 24 25 26 27 28 29 30 31 32 33 34 35 36 37 38 39 40 41 42 43 44 45 46 47 48 49 50
000
ASUS43 KTOP 260108
RWRKS

WEATHER ROUNDUP FOR KANSAS
NATIONAL WEATHER SERVICE GOODLAND KS
800 PM CDT FRI JUL 25 2014

NOTE:  "FAIR" INDICATES FEW OR NO CLOUDS BELOW 12,000 FEET WITH NO
SIGNIFICANT WEATHER AND/OR OBSTRUCTIONS TO VISIBILITY.

KSZ001>006-013>018-027>032-041>047-260200-
NORTHWEST KANSAS

CITY           SKY/WX    TMP DP  RH WIND       PRES   REMARKS
GOODLAND       PTSUNNY   90  59  35 E10       29.93S
HAYS           CLEAR     93  70  46 N5        29.79R HX  99
HILL CITY      CLEAR     95  68  41 NE9       29.82R HX  99
RUSSELL        CLEAR     97  66  36 W5        29.74S HX 100
$$

KSZ061>065-074>080-084>089-260200-
SOUTHWEST KANSAS

CITY           SKY/WX    TMP DP  RH WIND       PRES   REMARKS
DODGE CITY     PTCLDY    96  61  31 SE6       29.81F HX  96
ELKHART          N/A     95  55  26 S8          N/A
GARDEN CITY    MOCLDY    96  65  35 E6        29.83S HX  98
GREAT BEND     CLEAR     99  64  32 W6        29.75R HX 101
LIBERAL        CLEAR    100  54  20 S15       29.83F HX  98
PRATT          CLEAR     93  59  31 S14       29.81S
$$

KSZ066>073-081>083-090>101-260200-
SOUTHEAST KANSAS

CITY           SKY/WX    TMP DP  RH WIND       PRES   REMARKS
CHANUTE        CLEAR     87  73  62 S16       29.84F
COFFEYVILLE    PTCLDY    88  75  65 S15       29.85F HX  97
HUTCHINSON     CLEAR     97  59  28 S10       29.77S HX  96
MEDICINE LODGE   N/A     97  59  28 S13       29.77S HX  96
NEWTON         PTCLDY    97  57  26 S12       29.83R HX  95
PARSONS        PTCLDY    87  74  64 S12G20    29.86F HX  95
WICHITA INTL   PTCLDY    96  60  30 S17G24    29.78R HX  96
WICHITA JABRA  CLEAR     95  63  34 S14       29.79R HX  96
WICHITA MCCONL CLEAR     94  60  32 S14       29.80R
WINFIELD       CLEAR     91  73  55 S15       29.82R HX  99
$$

KSZ007>012-019>026-033>040-048>060-102>105-260200-
NORTHEAST KANSAS

CITY           SKY/WX    TMP DP  RH WIND       PRES   REMARKS
CONCORDIA      CLEAR     95  71  45 VRB3      29.74R HX 102
EMPORIA        PTCLDY    91  72  53 S17       29.79F HX  98
LAWRENCE       PTCLDY    93  72  50 S16       29.76F HX 101
MANHATTAN      CLEAR     99  68  36 SW7       29.73S HX 104
MARYSVILLE     CLEAR     97  70  41 CALM      29.73R HX 103
OLATHE IND     MOCLDY    89  73  59 S16       29.79F HX  97
OLATHE EXE     MOCLDY    88  73  61 S12       29.79F HX  95
SALINA         PTCLDY   101  64  29 S17G25    29.73S HX 104
TOPEKA BILLARD PTCLDY    95  71  45 S17G25    29.75S HX 102
TOPEKA FORBES  PTCLDY    93  70  46 S13       29.77R HX  99
$$


USA.gov is the U.S. government's official web portal to all federal, state and local government web resources and services.